Time,TemperatureF,DewpointF,PressureIn,WindDirection,WindDirectionDegrees,WindSpeedMPH,WindSpeedGustMPH,Humidity,HourlyPrecipIn,Conditions,Clouds,dailyrainin,SoftwareType,DateUTC
2013-05-25 00:00:00,54.2,51.3,30.14,North,349,0.0,0.0,90,0.00,,,0.01,Wunderground v.1.15,2013-05-25 05:00:00,
2013-05-25 00:02:00,54.1,51.5,30.14,N/A,-737280,0.0,-999.0,91,0.00,,,0.00,Wunderground v.1.15,2013-05-25 05:02:00,
2013-05-25 00:05:00,54.2,51.3,30.15,North,349,0.0,0.0,90,0.00,,,0.01,Wunderground v.1.15,2013-05-25 05:05:00,
2013-05-25 00:07:00,54.1,51.5,30.14,N/A,-737280,0.0,-999.0,91,0.00,,,0.00,Wunderground v.1.15,2013-05-25 05:07:00,
2013-05-25 00:12:00,54.1,51.5,30.14,N/A,-737280,0.0,-999.0,91,0.00,,,0.00,Wunderground v.1.15,2013-05-25 05:12:00,
2013-05-25 00:15:00,54.2,51.3,30.15,North,0,0.0,0.0,90,0.00,,,0.01,Wunderground v.1.15,2013-05-25 05:15:00,
2013-05-25 00:17:00,54.1,51.5,30.14,N/A,-737280,0.0,-999.0,91,0.00,,,0.00,Wunderground v.1.15,2013-05-25 05:17:00,
2013-05-25 00:20:00,54.1,51.2,30.15,North,0,0.0,0.0,90,0.00,,,0.00,Wunderground v.1.15,2013-05-25 05:20:00,
2013-05-25 00:22:00,54.1,51.5,30.14,N/A,-737280,0.0,-999.0,91,0.00,,,0.00,Wunderground v.1.15,2013-05-25 05:22:00,
2013-05-25 00:27:00,53.9,51.3,30.14,N/A,-737280,0.0,-999.0,91,0.00,,,0.00,Wunderground v.1.15,2013-05-25 05:27:00,
2013-05-25 00:30:00,54.1,51.2,30.15,North,0,0.0,0.0,90,0.00,,,0.00,Wunderground v.1.15,2013-05-25 05:30:00,
2013-05-25 00:32:00,53.9,51.3,30.14,N/A,-737280,0.0,-999.0,91,0.00,,,0.00,Wunderground v.1.15,2013-05-25 05:32:00,
2013-05-25 00:35:00,53.9,51.3,30.14,North,0,0.0,0.0,91,0.00,,,0.00,Wunderground v.1.15,2013-05-25 05:35:00,
2013-05-25 00:37:00,53.9,51.3,30.14,N/A,-737280,0.0,-999.0,91,0.00,,,0.00,Wunderground v.1.15,2013-05-25 05:37:00,
2013-05-25 00:42:00,53.9,51.3,30.14,N/A,-737280,0.0,-999.0,91,0.00,,,0.00,Wunderground v.1.15,2013-05-25 05:42:00,
2013-05-25 00:45:00,53.9,51.3,30.14,West,265,0.0,0.0,91,0.00,,,0.00,Wunderground v.1.15,2013-05-25 05:45:00,
2013-05-25 00:47:00,53.9,51.3,30.14,N/A,-737280,0.0,-999.0,91,0.00,,,0.00,Wunderground v.1.15,2013-05-25 05:47:00,
2013-05-25 00:52:00,53.9,51.3,30.14,N/A,-737280,0.0,-999.0,91,0.00,,,0.00,Wunderground v.1.15,2013-05-25 05:52:00,
2013-05-25 00:55:00,53.9,51.3,30.14,North,0,0.0,0.0,91,0.00,,,0.00,Wunderground v.1.15,2013-05-25 05:55:00,
2013-05-25 00:57:00,53.9,51.6,30.14,N/A,-737280,0.0,-999.0,92,0.00,,,0.00,Wunderground v.1.15,2013-05-25 05:57:00,
2013-05-25 01:00:00,53.9,51.3,30.14,North,0,0.0,0.0,91,0.00,,,0.00,Wunderground v.1.15,2013-05-25 06:00:00,
2013-05-25 01:02:00,53.9,51.6,30.14,N/A,-737280,0.0,-999.0,92,0.00,,,0.00,Wunderground v.1.15,2013-05-25 06:02:00,
2013-05-25 01:05:00,53.9,51.6,30.14,North,0,0.0,0.0,92,0.00,,,0.00,Wunderground v.1.15,2013-05-25 06:05:00,
2013-05-25 01:07:00,53.9,51.6,30.14,N/A,-737280,0.0,-999.0,92,0.00,,,0.00,Wunderground v.1.15,2013-05-25 06:07:00,
2013-05-25 01:12:00,53.9,51.6,30.14,N/A,-737280,0.0,-999.0,92,0.00,,,0.00,Wunderground v.1.15,2013-05-25 06:12:00,
2013-05-25 01:15:00,53.9,51.6,30.14,North,0,0.0,0.0,92,0.00,,,0.00,Wunderground v.1.15,2013-05-25 06:15:00,
2013-05-25 01:17:00,53.9,51.6,30.14,N/A,-737280,0.0,-999.0,92,0.00,,,0.00,Wunderground v.1.15,2013-05-25 06:17:00,
2013-05-25 01:22:00,53.9,51.6,30.14,N/A,-737280,0.0,-999.0,92,0.00,,,0.00,Wunderground v.1.15,2013-05-25 06:22:00,
2013-05-25 01:25:00,53.9,51.6,30.14,North,0,0.0,0.0,92,0.00,,,0.00,Wunderground v.1.15,2013-05-25 06:25:00,
2013-05-25 01:27:00,53.6,51.3,30.14,N/A,-737280,0.0,-999.0,92,0.00,,,0.00,Wunderground v.1.15,2013-05-25 06:27:00,
2013-05-25 01:30:00,53.8,51.5,30.14,NE,37,0.0,0.0,92,0.00,,,0.00,Wunderground v.1.15,2013-05-25 06:30:00,
2013-05-25 01:32:00,53.6,51.3,30.14,N/A,-737280,0.0,-999.0,92,0.00,,,0.00,Wunderground v.1.15,2013-05-25 06:32:00,
2013-05-25 01:37:00,53.6,51.3,30.14,N/A,-737280,0.0,-999.0,92,0.00,,,0.00,Wunderground v.1.15,2013-05-25 06:37:00,
2013-05-25 01:40:00,53.6,51.3,30.14,NNE,21,0.0,0.0,92,0.00,,,0.00,Wunderground v.1.15,2013-05-25 06:40:00,
2013-05-25 01:42:00,53.5,51.5,30.13,N/A,-737280,0.0,-999.0,93,0.00,,,0.00,Wunderground v.1.15,2013-05-25 06:42:00,
2013-05-25 01:47:00,53.5,51.5,30.13,N/A,-737280,0.0,-999.0,93,0.00,,,0.00,Wunderground v.1.15,2013-05-25 06:47:00,
2013-05-25 01:50:00,53.5,51.5,30.14,North,8,0.0,0.0,93,0.00,,,0.00,Wunderground v.1.15,2013-05-25 06:50:00,
2013-05-25 01:52:00,53.5,51.5,30.13,N/A,-737280,0.0,-999.0,93,0.00,,,0.00,Wunderground v.1.15,2013-05-25 06:52:00,
2013-05-25 01:55:00,53.5,51.5,30.14,North,8,0.0,0.0,93,0.00,,,0.00,Wunderground v.1.15,2013-05-25 06:55:00,
2013-05-25 01:57:00,53.4,51.4,30.13,N/A,-737280,0.0,-999.0,93,0.00,,,0.00,Wunderground v.1.15,2013-05-25 06:57:00,
2013-05-25 02:02:00,53.4,51.4,30.13,N/A,-737280,0.0,-999.0,93,0.00,,,0.00,Wunderground v.1.15,2013-05-25 07:02:00,
2013-05-25 02:05:00,53.5,51.5,30.13,North,8,0.0,0.0,93,0.00,,,0.00,Wunderground v.1.15,2013-05-25 07:05:00,
2013-05-25 02:07:00,53.4,51.4,30.13,N/A,-737280,0.0,-999.0,93,0.00,,,0.00,Wunderground v.1.15,2013-05-25 07:07:00,
2013-05-25 02:12:00,53.3,51.3,30.11,N/A,-737280,0.0,-999.0,93,0.00,,,0.00,Wunderground v.1.15,2013-05-25 07:12:00,
2013-05-25 02:15:00,53.3,51.3,30.13,NE,45,0.0,0.0,93,0.00,,,0.00,Wunderground v.1.15,2013-05-25 07:15:00,
2013-05-25 02:17:00,53.3,51.3,30.11,N/A,-737280,0.0,-999.0,93,0.00,,,0.00,Wunderground v.1.15,2013-05-25 07:17:00,
2013-05-25 02:22:00,53.3,51.3,30.11,N/A,-737280,0.0,-999.0,93,0.00,,,0.00,Wunderground v.1.15,2013-05-25 07:22:00,
2013-05-25 02:25:00,53.3,51.3,30.13,NE,45,0.0,0.0,93,0.00,,,0.00,Wunderground v.1.15,2013-05-25 07:25:00,
2013-05-25 02:27:00,53.4,51.4,30.11,N/A,-737280,0.0,-999.0,93,0.00,,,0.00,Wunderground v.1.15,2013-05-25 07:27:00,
2013-05-25 02:32:00,53.4,51.4,30.11,N/A,-737280,0.0,-999.0,93,0.00,,,0.00,Wunderground v.1.15,2013-05-25 07:32:00,
2013-05-25 02:35:00,53.5,51.5,30.11,North,0,0.0,0.0,93,0.00,,,0.00,Wunderground v.1.15,2013-05-25 07:35:00,
2013-05-25 02:37:00,53.4,51.4,30.11,N/A,-737280,0.0,-999.0,93,0.00,,,0.00,Wunderground v.1.15,2013-05-25 07:37:00,
2013-05-25 02:42:00,53.2,51.2,30.12,N/A,-737280,0.0,-999.0,93,0.00,,,0.00,Wunderground v.1.15,2013-05-25 07:42:00,
2013-05-25 02:45:00,53.3,51.3,30.11,North,0,0.0,0.0,93,0.00,,,0.00,Wunderground v.1.15,2013-05-25 07:45:00,
2013-05-25 02:47:00,53.2,51.2,30.12,N/A,-737280,0.0,-999.0,93,0.00,,,0.00,Wunderground v.1.15,2013-05-25 07:47:00,
2013-05-25 02:50:00,53.2,51.2,30.11,North,0,0.0,0.0,93,0.00,,,0.00,Wunderground v.1.15,2013-05-25 07:50:00,
2013-05-25 02:52:00,53.2,51.2,30.12,N/A,-737280,0.0,-999.0,93,0.00,,,0.00,Wunderground v.1.15,2013-05-25 07:52:00,
2013-05-25 02:57:00,53.1,51.1,30.11,N/A,-737280,0.0,-999.0,93,0.00,,,0.00,Wunderground v.1.15,2013-05-25 07:57:00,
2013-05-25 03:00:00,53.2,51.2,30.11,North,0,0.0,0.0,93,0.00,,,0.00,Wunderground v.1.15,2013-05-25 08:00:00,
2013-05-25 03:02:00,53.1,51.1,30.11,N/A,-737280,0.0,-999.0,93,0.00,,,0.00,Wunderground v.1.15,2013-05-25 08:02:00,
2013-05-25 03:05:00,53.1,51.1,30.12,North,3,0.0,0.0,93,0.00,,,0.00,Wunderground v.1.15,2013-05-25 08:05:00,
2013-05-25 03:07:00,53.1,51.1,30.11,N/A,-737280,0.0,-999.0,93,0.00,,,0.00,Wunderground v.1.15,2013-05-25 08:07:00,
2013-05-25 03:12:00,52.9,50.9,30.11,N/A,-737280,0.0,-999.0,93,0.00,,,0.00,Wunderground v.1.15,2013-05-25 08:12:00,
2013-05-25 03:15:00,53.1,51.1,30.12,North,4,0.0,0.0,93,0.00,,,0.00,Wunderground v.1.15,2013-05-25 08:15:00,
2013-05-25 03:17:00,52.9,50.9,30.11,N/A,-737280,0.0,-999.0,93,0.00,,,0.00,Wunderground v.1.15,2013-05-25 08:17:00,
2013-05-25 03:20:00,52.9,50.9,30.11,North,11,0.0,0.0,93,0.00,,,0.00,Wunderground v.1.15,2013-05-25 08:20:00,
2013-05-25 03:22:00,52.9,50.9,30.11,N/A,-737280,0.0,-999.0,93,0.00,,,0.00,Wunderground v.1.15,2013-05-25 08:22:00,
2013-05-25 03:27:00,52.8,50.5,30.12,N/A,-737280,0.0,-999.0,92,0.00,,,0.00,Wunderground v.1.15,2013-05-25 08:27:00,
2013-05-25 03:30:00,52.9,50.9,30.11,North,0,0.0,0.0,93,0.00,,,0.00,Wunderground v.1.15,2013-05-25 08:30:00,
2013-05-25 03:32:00,52.8,50.5,30.12,N/A,-737280,0.0,-999.0,92,0.00,,,0.00,Wunderground v.1.15,2013-05-25 08:32:00,
2013-05-25 03:37:00,52.8,50.5,30.12,N/A,-737280,0.0,-999.0,92,0.00,,,0.00,Wunderground v.1.15,2013-05-25 08:37:00,
2013-05-25 03:40:00,52.8,50.8,30.11,North,0,0.0,0.0,93,0.00,,,0.00,Wunderground v.1.15,2013-05-25 08:40:00,
2013-05-25 03:42:00,52.8,50.5,30.13,N/A,-737280,0.0,-999.0,92,0.00,,,0.00,Wunderground v.1.15,2013-05-25 08:42:00,
2013-05-25 03:45:00,52.8,50.5,30.11,North,0,0.0,0.0,92,0.00,,,0.00,Wunderground v.1.15,2013-05-25 08:45:00,
2013-05-25 03:47:00,52.8,50.5,30.13,N/A,-737280,0.0,-999.0,92,0.00,,,0.00,Wunderground v.1.15,2013-05-25 08:47:00,
2013-05-25 03:52:00,52.8,50.5,30.13,N/A,-737280,0.0,-999.0,92,0.00,,,0.00,Wunderground v.1.15,2013-05-25 08:52:00,
2013-05-25 03:55:00,52.8,50.5,30.12,North,0,0.0,0.0,92,0.00,,,0.00,Wunderground v.1.15,2013-05-25 08:55:00,
2013-05-25 03:57:00,52.9,50.6,30.13,N/A,-737280,0.0,-999.0,92,0.00,,,0.00,Wunderground v.1.15,2013-05-25 08:57:00,
2013-05-25 04:02:00,52.9,50.6,30.13,N/A,-737280,0.0,-999.0,92,0.00,,,0.00,Wunderground v.1.15,2013-05-25 09:02:00,
2013-05-25 04:05:00,52.9,50.6,30.13,North,0,0.0,0.0,92,0.00,,,0.00,Wunderground v.1.15,2013-05-25 09:05:00,
2013-05-25 04:07:00,52.9,50.6,30.13,N/A,-737280,0.0,-999.0,92,0.00,,,0.00,Wunderground v.1.15,2013-05-25 09:07:00,
2013-05-25 04:12:00,52.8,50.2,30.13,N/A,-737280,0.0,-999.0,91,0.00,,,0.00,Wunderground v.1.15,2013-05-25 09:12:00,
2013-05-25 04:15:00,52.9,50.6,30.13,North,0,0.0,0.0,92,0.00,,,0.00,Wunderground v.1.15,2013-05-25 09:15:00,
2013-05-25 04:17:00,52.8,50.2,30.13,N/A,-737280,0.0,-999.0,91,0.00,,,0.00,Wunderground v.1.15,2013-05-25 09:17:00,
2013-05-25 04:22:00,52.8,50.2,30.13,N/A,-737280,0.0,-999.0,91,0.00,,,0.00,Wunderground v.1.15,2013-05-25 09:22:00,
2013-05-25 04:25:00,52.8,50.2,30.13,North,0,0.0,0.0,91,0.00,,,0.00,Wunderground v.1.15,2013-05-25 09:25:00,
2013-05-25 04:27:00,52.6,50.0,30.13,N/A,-737280,0.0,-999.0,91,0.00,,,0.00,Wunderground v.1.15,2013-05-25 09:27:00,
2013-05-25 04:32:00,52.6,50.0,30.13,N/A,-737280,0.0,-999.0,91,0.00,,,0.00,Wunderground v.1.15,2013-05-25 09:32:00,
2013-05-25 04:35:00,52.6,50.0,30.13,NNE,20,0.0,0.0,91,0.00,,,0.00,Wunderground v.1.15,2013-05-25 09:35:00,
2013-05-25 04:37:00,52.6,50.0,30.13,N/A,-737280,0.0,-999.0,91,0.00,,,0.00,Wunderground v.1.15,2013-05-25 09:37:00,
2013-05-25 04:40:00,52.6,50.0,30.13,NE,51,0.0,0.0,91,0.00,,,0.00,Wunderground v.1.15,2013-05-25 09:40:00,
2013-05-25 04:42:00,52.6,49.8,30.13,N/A,-737280,0.0,-999.0,90,0.00,,,0.00,Wunderground v.1.15,2013-05-25 09:42:00,
2013-05-25 04:47:00,52.6,49.8,30.13,N/A,-737280,0.0,-999.0,90,0.00,,,0.00,Wunderground v.1.15,2013-05-25 09:47:00,
2013-05-25 04:50:00,52.6,49.8,30.13,North,0,0.0,0.0,90,0.00,,,0.00,Wunderground v.1.15,2013-05-25 09:50:00,
2013-05-25 04:52:00,52.6,49.8,30.13,N/A,-737280,0.0,-999.0,90,0.00,,,0.00,Wunderground v.1.15,2013-05-25 09:52:00,
2013-05-25 04:57:00,52.6,49.4,30.13,N/A,-737280,0.0,-999.0,89,0.00,,,0.00,Wunderground v.1.15,2013-05-25 09:57:00,
2013-05-25 05:00:00,52.5,49.7,30.13,North,0,0.0,0.0,90,0.00,,,0.00,Wunderground v.1.15,2013-05-25 10:00:00,
2013-05-25 05:02:00,52.6,49.4,30.13,N/A,-737280,0.0,-999.0,89,0.00,,,0.00,Wunderground v.1.15,2013-05-25 10:02:00,
2013-05-25 05:05:00,52.5,49.7,30.13,North,0,0.0,0.0,90,0.00,,,0.00,Wunderground v.1.15,2013-05-25 10:05:00,
2013-05-25 05:07:00,52.6,49.4,30.13,N/A,-737280,0.0,-999.0,89,0.00,,,0.00,Wunderground v.1.15,2013-05-25 10:07:00,
2013-05-25 05:12:00,52.6,49.1,30.12,N/A,-737280,0.0,-999.0,88,0.00,,,0.00,Wunderground v.1.15,2013-05-25 10:12:00,
2013-05-25 05:15:00,52.6,49.4,30.13,North,0,0.0,0.0,89,0.00,,,0.00,Wunderground v.1.15,2013-05-25 10:15:00,
2013-05-25 05:17:00,52.6,49.1,30.12,N/A,-737280,0.0,-999.0,88,0.00,,,0.00,Wunderground v.1.15,2013-05-25 10:17:00,
2013-05-25 05:22:00,52.6,49.1,30.12,N/A,-737280,0.0,-999.0,88,0.00,,,0.00,Wunderground v.1.15,2013-05-25 10:22:00,
2013-05-25 05:25:00,52.6,49.1,30.13,North,1,0.0,0.0,88,0.00,,,0.00,Wunderground v.1.15,2013-05-25 10:25:00,
2013-05-25 05:27:00,52.6,48.8,30.12,N/A,-737280,0.0,-999.0,87,0.00,,,0.00,Wunderground v.1.15,2013-05-25 10:27:00,
2013-05-25 05:32:00,52.6,48.8,30.12,N/A,-737280,0.0,-999.0,87,0.00,,,0.00,Wunderground v.1.15,2013-05-25 10:32:00,
2013-05-25 05:35:00,52.6,49.1,30.12,North,0,0.0,0.0,88,0.00,,,0.00,Wunderground v.1.15,2013-05-25 10:35:00,
2013-05-25 05:37:00,52.6,48.8,30.12,N/A,-737280,0.0,-999.0,87,0.00,,,0.00,Wunderground v.1.15,2013-05-25 10:37:00,
2013-05-25 05:42:00,52.7,48.3,30.12,N/A,-737280,0.0,-999.0,85,0.00,,,0.00,Wunderground v.1.15,2013-05-25 10:42:00,
2013-05-25 05:45:00,52.6,48.8,30.12,North,0,0.0,0.0,87,0.00,,,0.00,Wunderground v.1.15,2013-05-25 10:45:00,
2013-05-25 05:47:00,52.7,48.3,30.12,N/A,-737280,0.0,-999.0,85,0.00,,,0.00,Wunderground v.1.15,2013-05-25 10:47:00,
2013-05-25 05:50:00,52.6,48.5,30.12,North,0,0.0,0.0,86,0.00,,,0.00,Wunderground v.1.15,2013-05-25 10:50:00,
2013-05-25 05:52:00,52.7,48.3,30.12,N/A,-737280,0.0,-999.0,85,0.00,,,0.00,Wunderground v.1.15,2013-05-25 10:52:00,
2013-05-25 05:57:00,52.9,48.2,30.12,N/A,-737280,0.0,-999.0,84,0.00,,,0.00,Wunderground v.1.15,2013-05-25 10:57:00,
2013-05-25 06:00:00,52.8,48.4,30.12,North,0,0.0,0.0,85,0.00,,,0.00,Wunderground v.1.15,2013-05-25 11:00:00,
2013-05-25 06:02:00,52.9,48.2,30.12,N/A,-737280,0.0,-999.0,84,0.00,,,0.00,Wunderground v.1.15,2013-05-25 11:02:00,
2013-05-25 06:05:00,52.9,48.5,30.12,NE,40,0.0,0.0,85,0.00,,,0.00,Wunderground v.1.15,2013-05-25 11:05:00,
2013-05-25 06:07:00,52.9,48.2,30.12,N/A,-737280,0.0,-999.0,84,0.00,,,0.00,Wunderground v.1.15,2013-05-25 11:07:00,
2013-05-25 06:12:00,53.1,48.1,30.13,N/A,-737280,0.0,-999.0,83,0.00,,,0.00,Wunderground v.1.15,2013-05-25 11:12:00,
2013-05-25 06:15:00,52.9,48.2,30.12,NE,46,0.0,0.0,84,0.00,,,0.00,Wunderground v.1.15,2013-05-25 11:15:00,
2013-05-25 06:17:00,53.1,48.1,30.13,N/A,-737280,0.0,-999.0,83,0.00,,,0.00,Wunderground v.1.15,2013-05-25 11:17:00,
2013-05-25 06:22:00,53.1,48.1,30.13,N/A,-737280,0.0,-999.0,83,0.00,,,0.00,Wunderground v.1.15,2013-05-25 11:22:00,
2013-05-25 06:25:00,53.1,48.1,30.12,NE,36,0.0,0.0,83,0.00,,,0.00,Wunderground v.1.15,2013-05-25 11:25:00,
2013-05-25 06:27:00,53.5,47.8,30.14,N/A,-737280,0.0,-999.0,81,0.00,,,0.00,Wunderground v.1.15,2013-05-25 11:27:00,
2013-05-25 06:30:00,53.2,47.8,30.12,NNE,18,0.0,0.0,82,0.00,,,0.00,Wunderground v.1.15,2013-05-25 11:30:00,
2013-05-25 06:32:00,53.5,47.8,30.14,N/A,-737280,0.0,-999.0,81,0.00,,,0.00,Wunderground v.1.15,2013-05-25 11:32:00,
2013-05-25 06:37:00,53.5,47.8,30.14,N/A,-737280,0.0,-999.0,81,0.00,,,0.00,Wunderground v.1.15,2013-05-25 11:37:00,
2013-05-25 06:40:00,53.5,48.1,30.13,North,0,0.0,0.0,82,0.00,,,0.00,Wunderground v.1.15,2013-05-25 11:40:00,
2013-05-25 06:42:00,53.9,47.5,30.13,N/A,-737280,0.0,-999.0,79,0.00,,,0.00,Wunderground v.1.15,2013-05-25 11:42:00,
2013-05-25 06:47:00,53.9,47.5,30.13,N/A,-737280,0.0,-999.0,79,0.00,,,0.00,Wunderground v.1.15,2013-05-25 11:47:00,
2013-05-25 06:50:00,53.8,48.1,30.14,North,0,0.0,0.0,81,0.00,,,0.00,Wunderground v.1.15,2013-05-25 11:50:00,
2013-05-25 06:52:00,53.9,47.5,30.13,N/A,-737280,0.0,-999.0,79,0.00,,,0.00,Wunderground v.1.15,2013-05-25 11:52:00,
2013-05-25 06:55:00,53.9,47.9,30.14,North,0,0.0,0.0,80,0.00,,,0.00,Wunderground v.1.15,2013-05-25 11:55:00,
2013-05-25 06:57:00,54.3,47.2,30.14,N/A,-737280,0.0,-999.0,77,0.00,,,0.00,Wunderground v.1.15,2013-05-25 11:57:00,
2013-05-25 07:02:00,54.3,47.2,30.14,N/A,-737280,0.0,-999.0,77,0.00,,,0.00,Wunderground v.1.15,2013-05-25 12:02:00,
2013-05-25 07:05:00,54.1,47.4,30.13,North,0,0.0,0.0,78,0.00,,,0.00,Wunderground v.1.15,2013-05-25 12:05:00,
2013-05-25 07:07:00,54.3,47.2,30.14,N/A,-737280,0.0,-999.0,77,0.00,,,0.00,Wunderground v.1.15,2013-05-25 12:07:00,
2013-05-25 07:12:00,54.8,47.0,30.13,N/A,-737280,0.0,-999.0,75,0.00,,,0.00,Wunderground v.1.15,2013-05-25 12:12:00,
2013-05-25 07:15:00,54.4,47.3,30.13,North,0,0.0,0.0,77,0.00,,,0.00,Wunderground v.1.15,2013-05-25 12:15:00,
2013-05-25 07:17:00,54.8,47.0,30.13,N/A,-737280,0.0,-999.0,75,0.00,,,0.00,Wunderground v.1.15,2013-05-25 12:17:00,
2013-05-25 07:22:00,54.8,47.0,30.13,N/A,-737280,0.0,-999.0,75,0.00,,,0.00,Wunderground v.1.15,2013-05-25 12:22:00,
2013-05-25 07:25:00,54.8,47.4,30.14,North,0,0.0,0.0,76,0.00,,,0.00,Wunderground v.1.15,2013-05-25 12:25:00,
2013-05-25 07:27:00,55.2,47.4,30.14,N/A,-737280,0.0,-999.0,75,0.00,,,0.00,Wunderground v.1.15,2013-05-25 12:27:00,
2013-05-25 07:32:00,55.2,47.4,30.14,N/A,-737280,0.0,-999.0,75,0.00,,,0.00,Wunderground v.1.15,2013-05-25 12:32:00,
2013-05-25 07:35:00,55.1,47.3,30.13,NNE,23,0.0,0.0,75,0.00,,,0.00,Wunderground v.1.15,2013-05-25 12:35:00,
2013-05-25 07:37:00,55.2,47.4,30.14,N/A,-737280,0.0,-999.0,75,0.00,,,0.00,Wunderground v.1.15,2013-05-25 12:37:00,
2013-05-25 07:40:00,55.3,47.5,30.13,NNE,23,0.0,0.0,75,0.00,,,0.00,Wunderground v.1.15,2013-05-25 12:40:00,
2013-05-25 07:42:00,55.5,47.3,30.13,N/A,-737280,0.0,-999.0,74,0.00,,,0.00,Wunderground v.1.15,2013-05-25 12:42:00,
2013-05-25 07:47:00,55.5,47.3,30.13,N/A,-737280,0.0,-999.0,74,0.00,,,0.00,Wunderground v.1.15,2013-05-25 12:47:00,
2013-05-25 07:50:00,55.4,47.6,30.14,North,0,0.0,0.0,75,0.00,,,0.00,Wunderground v.1.15,2013-05-25 12:50:00,
2013-05-25 07:52:00,55.5,47.3,30.13,N/A,-737280,0.0,-999.0,74,0.00,,,0.00,Wunderground v.1.15,2013-05-25 12:52:00,
2013-05-25 07:57:00,55.8,46.9,30.12,N/A,-737280,0.0,-999.0,72,0.00,,,0.00,Wunderground v.1.15,2013-05-25 12:57:00,
2013-05-25 08:00:00,55.6,47.4,30.14,North,0,0.0,0.0,74,0.00,,,0.00,Wunderground v.1.15,2013-05-25 13:00:00,
2013-05-25 08:02:00,55.8,46.9,30.12,N/A,-737280,0.0,-999.0,72,0.00,,,0.00,Wunderground v.1.15,2013-05-25 13:02:00,
2013-05-25 08:05:00,55.7,47.2,30.13,North,0,0.0,0.0,73,0.00,,,0.00,Wunderground v.1.15,2013-05-25 13:05:00,
2013-05-25 08:07:00,55.8,46.9,30.12,N/A,-737280,0.0,-999.0,72,0.00,,,0.00,Wunderground v.1.15,2013-05-25 13:07:00,
2013-05-25 08:12:00,56.2,46.9,30.14,N/A,-737280,0.0,-999.0,71,0.00,,,0.00,Wunderground v.1.15,2013-05-25 13:12:00,
2013-05-25 08:15:00,55.9,47.0,30.13,North,0,0.0,0.0,72,0.00,,,0.00,Wunderground v.1.15,2013-05-25 13:15:00,
2013-05-25 08:17:00,56.2,46.9,30.14,N/A,-737280,0.0,-999.0,71,0.00,,,0.00,Wunderground v.1.15,2013-05-25 13:17:00,
2013-05-25 08:20:00,56.2,47.3,30.12,North,0,0.0,0.0,72,0.00,,,0.00,Wunderground v.1.15,2013-05-25 13:20:00,
2013-05-25 08:22:00,56.2,46.9,30.14,N/A,-737280,0.0,-999.0,71,0.00,,,0.00,Wunderground v.1.15,2013-05-25 13:22:00,
2013-05-25 08:27:00,56.3,46.6,30.14,N/A,-737280,0.0,-999.0,70,0.00,,,0.00,Wunderground v.1.15,2013-05-25 13:27:00,
2013-05-25 08:30:00,56.3,46.6,30.12,NNE,16,0.0,0.0,70,0.00,,,0.00,Wunderground v.1.15,2013-05-25 13:30:00,
2013-05-25 08:32:00,56.3,46.6,30.14,N/A,-737280,0.0,-999.0,70,0.00,,,0.00,Wunderground v.1.15,2013-05-25 13:32:00,
2013-05-25 08:35:00,56.3,46.6,30.14,North,0,0.0,0.0,70,0.00,,,0.00,Wunderground v.1.15,2013-05-25 13:35:00,
2013-05-25 08:37:00,56.3,46.6,30.14,N/A,-737280,0.0,-999.0,70,0.00,,,0.00,Wunderground v.1.15,2013-05-25 13:37:00,
2013-05-25 08:42:00,56.4,46.4,30.13,N/A,-737280,0.0,-999.0,69,0.00,,,0.00,Wunderground v.1.15,2013-05-25 13:42:00,
2013-05-25 08:45:00,56.3,46.3,30.14,North,0,0.0,0.0,69,0.00,,,0.00,Wunderground v.1.15,2013-05-25 13:45:00,
2013-05-25 08:47:00,56.4,46.4,30.13,N/A,-737280,0.0,-999.0,69,0.00,,,0.00,Wunderground v.1.15,2013-05-25 13:47:00,
2013-05-25 08:52:00,56.4,46.4,30.13,N/A,-737280,0.0,-999.0,69,0.00,,,0.00,Wunderground v.1.15,2013-05-25 13:52:00,
2013-05-25 08:55:00,56.3,46.3,30.14,North,0,0.0,0.0,69,0.00,,,0.00,Wunderground v.1.15,2013-05-25 13:55:00,
2013-05-25 08:57:00,56.7,45.5,30.13,N/A,-737280,0.0,-999.0,66,0.00,,,0.00,Wunderground v.1.15,2013-05-25 13:57:00,
2013-05-25 09:00:00,56.5,46.8,30.14,North,0,0.0,0.0,70,0.00,,,0.00,Wunderground v.1.15,2013-05-25 14:00:00,
2013-05-25 09:02:00,56.7,45.5,30.13,N/A,-737280,0.0,-999.0,66,0.00,,,0.00,Wunderground v.1.15,2013-05-25 14:02:00,
2013-05-25 09:05:00,56.6,46.5,30.13,North,0,0.0,0.0,69,0.00,,,0.00,Wunderground v.1.15,2013-05-25 14:05:00,
2013-05-25 09:07:00,56.7,45.5,30.13,N/A,-737280,0.0,-999.0,66,0.00,,,0.00,Wunderground v.1.15,2013-05-25 14:07:00,
2013-05-25 09:12:00,57.2,45.5,30.13,N/A,-737280,0.0,-999.0,65,0.00,,,0.00,Wunderground v.1.15,2013-05-25 14:12:00,
2013-05-25 09:15:00,56.7,45.9,30.13,North,0,0.0,0.0,67,0.00,,,0.00,Wunderground v.1.15,2013-05-25 14:15:00,
2013-05-25 09:17:00,57.2,45.5,30.13,N/A,-737280,0.0,-999.0,65,0.00,,,0.00,Wunderground v.1.15,2013-05-25 14:17:00,
2013-05-25 09:20:00,56.9,46.1,30.13,North,0,0.0,0.0,67,0.00,,,0.00,Wunderground v.1.15,2013-05-25 14:20:00,
2013-05-25 09:22:00,57.2,45.5,30.13,N/A,-737280,0.0,-999.0,65,0.00,,,0.00,Wunderground v.1.15,2013-05-25 14:22:00,
2013-05-25 09:27:00,58.0,45.5,30.13,N/A,-737280,0.0,-999.0,63,0.00,,,0.00,Wunderground v.1.15,2013-05-25 14:27:00,
2013-05-25 09:30:00,57.5,45.8,30.13,North,0,0.0,0.0,65,0.00,,,0.00,Wunderground v.1.15,2013-05-25 14:30:00,
2013-05-25 09:32:00,58.0,45.5,30.13,N/A,-737280,0.0,-999.0,63,0.00,,,0.00,Wunderground v.1.15,2013-05-25 14:32:00,
2013-05-25 09:37:00,58.0,45.5,30.13,N/A,-737280,0.0,-999.0,63,0.00,,,0.00,Wunderground v.1.15,2013-05-25 14:37:00,
2013-05-25 09:40:00,58.1,45.6,30.13,North,0,0.0,0.0,63,0.00,,,0.00,Wunderground v.1.15,2013-05-25 14:40:00,
2013-05-25 09:42:00,58.2,45.2,30.13,N/A,-737280,0.0,-999.0,62,0.00,,,0.00,Wunderground v.1.15,2013-05-25 14:42:00,
2013-05-25 09:47:00,58.2,45.2,30.13,N/A,-737280,0.0,-999.0,62,0.00,,,0.00,Wunderground v.1.15,2013-05-25 14:47:00,
2013-05-25 09:50:00,58.1,46.0,30.13,North,0,0.0,0.0,64,0.00,,,0.00,Wunderground v.1.15,2013-05-25 14:50:00,
2013-05-25 09:52:00,58.2,45.2,30.13,N/A,-737280,0.0,-999.0,62,0.00,,,0.00,Wunderground v.1.15,2013-05-25 14:52:00,
2013-05-25 09:55:00,58.3,45.8,30.13,North,0,0.0,0.0,63,0.00,,,0.00,Wunderground v.1.15,2013-05-25 14:55:00,
2013-05-25 09:57:00,58.1,45.1,30.13,N/A,-737280,0.0,-999.0,62,0.00,,,0.00,Wunderground v.1.15,2013-05-25 14:57:00,
2013-05-25 10:02:00,58.1,45.1,30.13,N/A,-737280,0.0,-999.0,62,0.00,,,0.00,Wunderground v.1.15,2013-05-25 15:02:00,
2013-05-25 10:05:00,58.3,45.3,30.13,North,0,0.0,0.0,62,0.00,,,0.00,Wunderground v.1.15,2013-05-25 15:05:00,
2013-05-25 10:07:00,58.1,45.1,30.13,N/A,-737280,0.0,-999.0,62,0.00,,,0.00,Wunderground v.1.15,2013-05-25 15:07:00,
2013-05-25 10:12:00,58.3,44.9,30.13,N/A,-737280,0.0,-999.0,61,0.00,,,0.00,Wunderground v.1.15,2013-05-25 15:12:00,
2013-05-25 10:15:00,58.1,45.1,30.13,North,0,0.0,0.0,62,0.00,,,0.00,Wunderground v.1.15,2013-05-25 15:15:00,
2013-05-25 10:17:00,58.3,44.9,30.13,N/A,-737280,0.0,-999.0,61,0.00,,,0.00,Wunderground v.1.15,2013-05-25 15:17:00,
2013-05-25 10:22:00,58.3,44.9,30.13,N/A,-737280,0.0,-999.0,61,0.00,,,0.00,Wunderground v.1.15,2013-05-25 15:22:00,
2013-05-25 10:25:00,58.3,45.3,30.13,North,0,0.0,0.0,62,0.00,,,0.00,Wunderground v.1.15,2013-05-25 15:25:00,
2013-05-25 10:27:00,58.7,44.8,30.13,N/A,-737280,0.0,-999.0,60,0.00,,,0.00,Wunderground v.1.15,2013-05-25 15:27:00,
2013-05-25 10:32:00,58.7,44.8,30.13,N/A,-737280,0.0,-999.0,60,0.00,,,0.00,Wunderground v.1.15,2013-05-25 15:32:00,
2013-05-25 10:35:00,58.4,45.0,30.13,North,0,0.0,0.0,61,0.00,,,0.00,Wunderground v.1.15,2013-05-25 15:35:00,
2013-05-25 10:37:00,58.7,44.8,30.13,N/A,-737280,0.0,-999.0,60,0.00,,,0.00,Wunderground v.1.15,2013-05-25 15:37:00,
2013-05-25 10:40:00,58.6,45.2,30.13,North,0,0.0,0.0,61,0.00,,,0.00,Wunderground v.1.15,2013-05-25 15:40:00,
2013-05-25 10:42:00,59.8,45.4,30.13,N/A,-737280,0.0,-999.0,59,0.00,,,0.00,Wunderground v.1.15,2013-05-25 15:42:00,
2013-05-25 10:47:00,59.8,45.4,30.13,N/A,-737280,0.0,-999.0,59,0.00,,,0.00,Wunderground v.1.15,2013-05-25 15:47:00,
2013-05-25 10:50:00,59.5,45.6,30.13,North,0,0.0,0.0,60,0.00,,,0.00,Wunderground v.1.15,2013-05-25 15:50:00,
2013-05-25 10:52:00,59.8,45.4,30.13,N/A,-737280,0.0,-999.0,59,0.00,,,0.00,Wunderground v.1.15,2013-05-25 15:52:00,
2013-05-25 10:55:00,59.8,45.4,30.13,North,0,0.0,0.0,59,0.00,,,0.00,Wunderground v.1.15,2013-05-25 15:55:00,
2013-05-25 10:57:00,61.5,46.6,30.13,N/A,-737280,0.0,-999.0,58,0.00,,,0.00,Wunderground v.1.15,2013-05-25 15:57:00,
2013-05-25 11:02:00,61.5,46.6,30.13,N/A,-737280,0.0,-999.0,58,0.00,,,0.00,Wunderground v.1.15,2013-05-25 16:02:00,
2013-05-25 11:05:00,60.5,46.1,30.13,North,0,0.0,0.0,59,0.00,,,0.00,Wunderground v.1.15,2013-05-25 16:05:00,
2013-05-25 11:07:00,61.5,46.6,30.13,N/A,-737280,0.0,-999.0,58,0.00,,,0.00,Wunderground v.1.15,2013-05-25 16:07:00,
2013-05-25 11:12:00,62.7,45.3,30.13,N/A,-737280,0.0,-999.0,53,0.00,,,0.00,Wunderground v.1.15,2013-05-25 16:12:00,
2013-05-25 11:15:00,62.3,46.4,30.13,North,0,0.0,0.0,56,0.00,,,0.00,Wunderground v.1.15,2013-05-25 16:15:00,
2013-05-25 11:17:00,62.7,45.3,30.13,N/A,-737280,0.0,-999.0,53,0.00,,,0.00,Wunderground v.1.15,2013-05-25 16:17:00,
2013-05-25 11:20:00,62.6,46.2,30.13,North,5,0.0,0.0,55,0.00,,,0.00,Wunderground v.1.15,2013-05-25 16:20:00,
2013-05-25 11:22:00,62.7,45.3,30.13,N/A,-737280,0.0,-999.0,53,0.00,,,0.00,Wunderground v.1.15,2013-05-25 16:22:00,
2013-05-25 11:27:00,61.7,44.9,30.15,N/A,-737280,0.0,-999.0,54,0.00,,,0.00,Wunderground v.1.15,2013-05-25 16:27:00,
2013-05-25 11:30:00,62.7,46.3,30.13,North,0,0.0,0.0,55,0.00,,,0.00,Wunderground v.1.15,2013-05-25 16:30:00,
2013-05-25 11:32:00,61.7,44.9,30.15,N/A,-737280,0.0,-999.0,54,0.00,,,0.00,Wunderground v.1.15,2013-05-25 16:32:00,
2013-05-25 11:35:00,62.1,45.2,30.13,North,0,0.0,0.0,54,0.00,,,0.00,Wunderground v.1.15,2013-05-25 16:35:00,
2013-05-25 11:37:00,61.7,44.9,30.15,N/A,-737280,0.0,-999.0,54,0.00,,,0.00,Wunderground v.1.15,2013-05-25 16:37:00,
2013-05-25 11:42:00,60.8,45.0,30.15,N/A,-737280,0.0,-999.0,56,0.00,,,0.00,Wunderground v.1.15,2013-05-25 16:42:00,
2013-05-25 11:45:00,61.3,44.5,30.13,North,0,0.0,0.0,54,0.00,,,0.00,Wunderground v.1.15,2013-05-25 16:45:00,
2013-05-25 11:47:00,60.8,45.0,30.15,N/A,-737280,0.0,-999.0,56,0.00,,,0.00,Wunderground v.1.15,2013-05-25 16:47:00,
2013-05-25 11:52:00,60.8,45.0,30.15,N/A,-737280,0.0,-999.0,56,0.00,,,0.00,Wunderground v.1.15,2013-05-25 16:52:00,
2013-05-25 11:55:00,60.7,44.4,30.15,North,0,0.0,0.0,55,0.00,,,0.00,Wunderground v.1.15,2013-05-25 16:55:00,
2013-05-25 11:57:00,60.7,44.4,30.15,N/A,-737280,0.0,-999.0,55,0.00,,,0.00,Wunderground v.1.15,2013-05-25 16:57:00,
2013-05-25 12:00:00,60.7,44.4,30.15,North,0,0.0,0.0,55,0.00,,,0.00,Wunderground v.1.15,2013-05-25 17:00:00,
2013-05-25 12:02:00,60.7,44.4,30.15,N/A,-737280,0.0,-999.0,55,0.00,,,0.00,Wunderground v.1.15,2013-05-25 17:02:00,
2013-05-25 12:05:00,60.7,44.4,30.15,North,0,0.0,0.0,55,0.00,,,0.00,Wunderground v.1.15,2013-05-25 17:05:00,
2013-05-25 12:07:00,60.7,44.4,30.15,N/A,-737280,0.0,-999.0,55,0.00,,,0.00,Wunderground v.1.15,2013-05-25 17:07:00,
2013-05-25 12:12:00,60.3,44.1,30.15,N/A,-737280,0.0,-999.0,55,0.00,,,0.00,Wunderground v.1.15,2013-05-25 17:12:00,
2013-05-25 12:15:00,60.7,43.9,30.15,North,0,0.0,0.0,54,0.00,,,0.00,Wunderground v.1.15,2013-05-25 17:15:00,
2013-05-25 12:17:00,60.3,44.1,30.15,N/A,-737280,0.0,-999.0,55,0.00,,,0.00,Wunderground v.1.15,2013-05-25 17:17:00,
2013-05-25 12:22:00,60.3,44.1,30.15,N/A,-737280,0.0,-999.0,55,0.00,,,0.00,Wunderground v.1.15,2013-05-25 17:22:00,
2013-05-25 12:25:00,60.4,44.6,30.15,North,0,0.0,0.0,56,0.00,,,0.00,Wunderground v.1.15,2013-05-25 17:25:00,
2013-05-25 12:27:00,59.9,44.2,30.15,N/A,-737280,0.0,-999.0,56,0.00,,,0.00,Wunderground v.1.15,2013-05-25 17:27:00,
2013-05-25 12:30:00,60.2,44.4,30.15,North,0,0.0,0.0,56,0.00,,,0.00,Wunderground v.1.15,2013-05-25 17:30:00,
2013-05-25 12:32:00,59.9,44.2,30.15,N/A,-737280,0.0,-999.0,56,0.00,,,0.00,Wunderground v.1.15,2013-05-25 17:32:00,
2013-05-25 12:37:00,59.9,44.2,30.15,N/A,-737280,0.0,-999.0,56,0.00,,,0.00,Wunderground v.1.15,2013-05-25 17:37:00,
2013-05-25 12:40:00,59.9,44.2,30.15,North,0,0.0,0.0,56,0.00,,,0.00,Wunderground v.1.15,2013-05-25 17:40:00,
2013-05-25 12:42:00,59.6,44.3,30.15,N/A,-737280,0.0,-999.0,57,0.00,,,0.00,Wunderground v.1.15,2013-05-25 17:42:00,
2013-05-25 12:47:00,59.6,44.3,30.15,N/A,-737280,0.0,-999.0,57,0.00,,,0.00,Wunderground v.1.15,2013-05-25 17:47:00,
2013-05-25 12:50:00,59.6,44.3,30.15,North,0,0.0,0.0,57,0.00,,,0.00,Wunderground v.1.15,2013-05-25 17:50:00,
2013-05-25 12:52:00,59.6,44.3,30.15,N/A,-737280,0.0,-999.0,57,0.00,,,0.00,Wunderground v.1.15,2013-05-25 17:52:00,
2013-05-25 12:55:00,59.6,43.9,30.15,North,0,0.0,0.0,56,0.00,,,0.00,Wunderground v.1.15,2013-05-25 17:55:00,
2013-05-25 12:57:00,59.5,43.8,30.16,N/A,-737280,0.0,-999.0,56,0.00,,,0.00,Wunderground v.1.15,2013-05-25 17:57:00,
2013-05-25 13:02:00,59.5,43.8,30.16,N/A,-737280,0.0,-999.0,56,0.00,,,0.00,Wunderground v.1.15,2013-05-25 18:02:00,
2013-05-25 13:05:00,59.5,43.8,30.15,North,0,0.0,0.0,56,0.00,,,0.00,Wunderground v.1.15,2013-05-25 18:05:00,
2013-05-25 13:07:00,59.5,43.8,30.16,N/A,-737280,0.0,-999.0,56,0.00,,,0.00,Wunderground v.1.15,2013-05-25 18:07:00,
2013-05-25 13:12:00,59.7,44.4,30.15,N/A,-737280,0.0,-999.0,57,0.00,,,0.00,Wunderground v.1.15,2013-05-25 18:12:00,
2013-05-25 13:15:00,59.5,44.2,30.15,North,0,0.0,0.0,57,0.00,,,0.00,Wunderground v.1.15,2013-05-25 18:15:00,
2013-05-25 13:17:00,59.7,44.4,30.15,N/A,-737280,0.0,-999.0,57,0.00,,,0.00,Wunderground v.1.15,2013-05-25 18:17:00,
2013-05-25 13:22:00,59.7,44.4,30.15,N/A,-737280,0.0,-999.0,57,0.00,,,0.00,Wunderground v.1.15,2013-05-25 18:22:00,
2013-05-25 13:25:00,59.8,44.5,30.16,North,0,0.0,0.0,57,0.00,,,0.00,Wunderground v.1.15,2013-05-25 18:25:00,
2013-05-25 13:27:00,60.4,45.1,30.15,N/A,-737280,0.0,-999.0,57,0.00,,,0.00,Wunderground v.1.15,2013-05-25 18:27:00,
2013-05-25 13:32:00,60.4,45.1,30.15,N/A,-737280,0.0,-999.0,57,0.00,,,0.00,Wunderground v.1.15,2013-05-25 18:32:00,
2013-05-25 13:35:00,60.4,45.1,30.15,North,0,0.0,0.0,57,0.00,,,0.00,Wunderground v.1.15,2013-05-25 18:35:00,
2013-05-25 13:37:00,60.4,45.1,30.15,N/A,-737280,0.0,-999.0,57,0.00,,,0.00,Wunderground v.1.15,2013-05-25 18:37:00,
2013-05-25 13:42:00,60.4,46.0,30.15,N/A,-737280,0.0,-999.0,59,0.00,,,0.00,Wunderground v.1.15,2013-05-25 18:42:00,
2013-05-25 13:45:00,60.4,44.6,30.15,North,0,0.0,0.0,56,0.00,,,0.00,Wunderground v.1.15,2013-05-25 18:45:00,
2013-05-25 13:47:00,60.4,46.0,30.15,N/A,-737280,0.0,-999.0,59,0.00,,,0.00,Wunderground v.1.15,2013-05-25 18:47:00,
2013-05-25 13:50:00,60.4,45.1,30.15,North,0,0.0,0.0,57,0.00,,,0.00,Wunderground v.1.15,2013-05-25 18:50:00,
2013-05-25 13:52:00,60.4,46.0,30.15,N/A,-737280,0.0,-999.0,59,0.00,,,0.00,Wunderground v.1.15,2013-05-25 18:52:00,
2013-05-25 13:57:00,61.0,46.1,30.14,N/A,-737280,0.0,-999.0,58,0.00,,,0.00,Wunderground v.1.15,2013-05-25 18:57:00,
2013-05-25 14:00:00,60.4,45.5,30.15,North,0,0.0,0.0,58,0.00,,,0.00,Wunderground v.1.15,2013-05-25 19:00:00,
2013-05-25 14:02:00,61.0,46.1,30.14,N/A,-737280,0.0,-999.0,58,0.00,,,0.00,Wunderground v.1.15,2013-05-25 19:02:00,
2013-05-25 14:05:00,60.5,45.6,30.15,North,0,0.0,0.0,58,0.00,,,0.00,Wunderground v.1.15,2013-05-25 19:05:00,
2013-05-25 14:07:00,61.0,46.1,30.14,N/A,-737280,0.0,-999.0,58,0.00,,,0.00,Wunderground v.1.15,2013-05-25 19:07:00,
2013-05-25 14:12:00,60.8,46.8,30.14,N/A,-737280,0.0,-999.0,60,0.00,,,0.00,Wunderground v.1.15,2013-05-25 19:12:00,
2013-05-25 14:15:00,61.3,46.8,30.15,North,0,0.0,0.0,59,0.00,,,0.00,Wunderground v.1.15,2013-05-25 19:15:00,
2013-05-25 14:17:00,60.8,46.8,30.14,N/A,-737280,0.0,-999.0,60,0.00,,,0.00,Wunderground v.1.15,2013-05-25 19:17:00,
2013-05-25 14:20:00,61.0,45.7,30.14,North,0,0.0,0.0,57,0.00,,,0.00,Wunderground v.1.15,2013-05-25 19:20:00,
2013-05-25 14:22:00,60.8,46.8,30.14,N/A,-737280,0.0,-999.0,60,0.00,,,0.00,Wunderground v.1.15,2013-05-25 19:22:00,
2013-05-25 14:27:00,60.7,46.7,30.15,N/A,-737280,0.0,-999.0,60,0.00,,,0.00,Wunderground v.1.15,2013-05-25 19:27:00,
2013-05-25 14:30:00,60.5,46.1,30.14,North,0,0.0,0.0,59,0.00,,,0.00,Wunderground v.1.15,2013-05-25 19:30:00,
2013-05-25 14:32:00,60.7,46.7,30.15,N/A,-737280,0.0,-999.0,60,0.00,,,0.00,Wunderground v.1.15,2013-05-25 19:32:00,
2013-05-25 14:37:00,60.7,46.7,30.15,N/A,-737280,0.0,-999.0,60,0.00,,,0.00,Wunderground v.1.15,2013-05-25 19:37:00,
2013-05-25 14:40:00,60.5,47.0,30.14,North,0,0.0,0.0,61,0.00,,,0.00,Wunderground v.1.15,2013-05-25 19:40:00,
2013-05-25 14:42:00,62.0,48.4,30.15,N/A,-737280,0.0,-999.0,61,0.00,,,0.00,Wunderground v.1.15,2013-05-25 19:42:00,
2013-05-25 14:45:00,61.0,47.0,30.14,North,0,0.0,0.0,60,0.00,,,0.00,Wunderground v.1.15,2013-05-25 19:45:00,
2013-05-25 14:47:00,62.0,48.4,30.15,N/A,-737280,0.0,-999.0,61,0.00,,,0.00,Wunderground v.1.15,2013-05-25 19:47:00,
2013-05-25 14:52:00,62.0,48.4,30.15,N/A,-737280,0.0,-999.0,61,0.00,,,0.00,Wunderground v.1.15,2013-05-25 19:52:00,
2013-05-25 14:55:00,62.4,47.9,30.15,North,0,0.0,0.0,59,0.00,,,0.00,Wunderground v.1.15,2013-05-25 19:55:00,
2013-05-25 14:57:00,61.0,47.9,30.15,N/A,-737280,0.0,-999.0,62,0.00,,,0.00,Wunderground v.1.15,2013-05-25 19:57:00,
2013-05-25 15:00:00,61.6,47.1,30.15,North,0,0.0,0.0,59,0.00,,,0.00,Wunderground v.1.15,2013-05-25 20:00:00,
2013-05-25 15:02:00,61.0,47.9,30.15,N/A,-737280,0.0,-999.0,62,0.00,,,0.00,Wunderground v.1.15,2013-05-25 20:02:00,
2013-05-25 15:05:00,61.3,48.2,30.15,NNE,25,0.0,0.0,62,0.00,,,0.00,Wunderground v.1.15,2013-05-25 20:05:00,
2013-05-25 15:07:00,61.0,47.9,30.15,N/A,-737280,0.0,-999.0,62,0.00,,,0.00,Wunderground v.1.15,2013-05-25 20:07:00,
2013-05-25 15:12:00,60.4,48.2,30.15,N/A,-737280,0.0,-999.0,64,0.00,,,0.00,Wunderground v.1.15,2013-05-25 20:12:00,
2013-05-25 15:15:00,61.0,47.9,30.15,NE,43,0.0,0.0,62,0.00,,,0.00,Wunderground v.1.15,2013-05-25 20:15:00,
2013-05-25 15:17:00,60.4,48.2,30.15,N/A,-737280,0.0,-999.0,64,0.00,,,0.00,Wunderground v.1.15,2013-05-25 20:17:00,
2013-05-25 15:22:00,60.4,48.2,30.15,N/A,-737280,0.0,-999.0,64,0.00,,,0.00,Wunderground v.1.15,2013-05-25 20:22:00,
2013-05-25 15:25:00,60.4,47.7,30.15,North,0,0.0,0.0,63,0.00,,,0.00,Wunderground v.1.15,2013-05-25 20:25:00,
2013-05-25 15:27:00,59.9,46.4,30.15,N/A,-737280,0.0,-999.0,61,0.00,,,0.00,Wunderground v.1.15,2013-05-25 20:27:00,
2013-05-25 15:30:00,60.2,48.0,30.15,North,0,0.0,0.0,64,0.00,,,0.00,Wunderground v.1.15,2013-05-25 20:30:00,
2013-05-25 15:32:00,59.9,46.4,30.15,N/A,-737280,0.0,-999.0,61,0.00,,,0.00,Wunderground v.1.15,2013-05-25 20:32:00,
2013-05-25 15:37:00,59.9,46.4,30.15,N/A,-737280,0.0,-999.0,61,0.00,,,0.00,Wunderground v.1.15,2013-05-25 20:37:00,
2013-05-25 15:40:00,59.6,47.0,30.15,North,0,0.0,0.0,63,0.00,,,0.00,Wunderground v.1.15,2013-05-25 20:40:00,
2013-05-25 15:42:00,59.9,47.3,30.15,N/A,-737280,0.0,-999.0,63,0.00,,,0.00,Wunderground v.1.15,2013-05-25 20:42:00,
2013-05-25 15:47:00,59.9,47.3,30.15,N/A,-737280,0.0,-999.0,63,0.00,,,0.00,Wunderground v.1.15,2013-05-25 20:47:00,
2013-05-25 15:50:00,60.1,46.6,30.15,North,0,0.0,0.0,61,0.00,,,0.00,Wunderground v.1.15,2013-05-25 20:50:00,
2013-05-25 15:52:00,59.9,47.3,30.15,N/A,-737280,0.0,-999.0,63,0.00,,,0.00,Wunderground v.1.15,2013-05-25 20:52:00,
2013-05-25 15:57:00,59.9,46.4,30.14,N/A,-737280,0.0,-999.0,61,0.00,,,0.00,Wunderground v.1.15,2013-05-25 20:57:00,
2013-05-25 16:00:00,59.8,46.3,30.15,North,0,0.0,0.0,61,0.00,,,0.00,Wunderground v.1.15,2013-05-25 21:00:00,
2013-05-25 16:02:00,59.9,46.4,30.14,N/A,-737280,0.0,-999.0,61,0.00,,,0.00,Wunderground v.1.15,2013-05-25 21:02:00,
2013-05-25 16:05:00,60.2,46.7,30.15,North,7,0.0,0.0,61,0.00,,,0.00,Wunderground v.1.15,2013-05-25 21:05:00,
2013-05-25 16:07:00,59.9,46.4,30.14,N/A,-737280,0.0,-999.0,61,0.00,,,0.00,Wunderground v.1.15,2013-05-25 21:07:00,
2013-05-25 16:12:00,59.8,46.7,30.14,N/A,-737280,0.0,-999.0,62,0.00,,,0.00,Wunderground v.1.15,2013-05-25 21:12:00,
2013-05-25 16:15:00,59.8,45.9,30.15,North,0,0.0,0.0,60,0.00,,,0.00,Wunderground v.1.15,2013-05-25 21:15:00,
2013-05-25 16:17:00,59.8,46.7,30.14,N/A,-737280,0.0,-999.0,62,0.00,,,0.00,Wunderground v.1.15,2013-05-25 21:17:00,
2013-05-25 16:22:00,59.8,46.7,30.14,N/A,-737280,0.0,-999.0,62,0.00,,,0.00,Wunderground v.1.15,2013-05-25 21:22:00,
2013-05-25 16:25:00,59.8,46.3,30.14,NNE,31,0.0,0.0,61,0.00,,,0.00,Wunderground v.1.15,2013-05-25 21:25:00,
2013-05-25 16:27:00,59.7,47.5,30.14,N/A,-737280,0.0,-999.0,64,0.00,,,0.00,Wunderground v.1.15,2013-05-25 21:27:00,
2013-05-25 16:32:00,59.7,47.5,30.14,N/A,-737280,0.0,-999.0,64,0.00,,,0.00,Wunderground v.1.15,2013-05-25 21:32:00,
2013-05-25 16:35:00,59.8,46.7,30.14,NNE,27,0.0,0.0,62,0.00,,,0.00,Wunderground v.1.15,2013-05-25 21:35:00,
2013-05-25 16:37:00,59.7,47.5,30.14,N/A,-737280,0.0,-999.0,64,0.00,,,0.00,Wunderground v.1.15,2013-05-25 21:37:00,
2013-05-25 16:42:00,59.7,47.1,30.13,N/A,-737280,0.0,-999.0,63,0.00,,,0.00,Wunderground v.1.15,2013-05-25 21:42:00,
2013-05-25 16:45:00,59.6,47.0,30.14,NE,50,0.0,0.0,63,0.00,,,0.00,Wunderground v.1.15,2013-05-25 21:45:00,
2013-05-25 16:47:00,59.7,47.1,30.13,N/A,-737280,0.0,-999.0,63,0.00,,,0.00,Wunderground v.1.15,2013-05-25 21:47:00,
2013-05-25 16:52:00,59.7,47.1,30.13,N/A,-737280,0.0,-999.0,63,0.00,,,0.00,Wunderground v.1.15,2013-05-25 21:52:00,
2013-05-25 16:55:00,59.8,47.6,30.14,ENE,65,0.0,0.0,64,0.00,,,0.00,Wunderground v.1.15,2013-05-25 21:55:00,
2013-05-25 16:57:00,60.4,47.3,30.13,N/A,-737280,0.0,-999.0,62,0.00,,,0.00,Wunderground v.1.15,2013-05-25 21:57:00,
2013-05-25 17:00:00,60.1,47.0,30.14,North,0,0.0,0.0,62,0.00,,,0.00,Wunderground v.1.15,2013-05-25 22:00:00,
2013-05-25 17:02:00,60.4,47.3,30.13,N/A,-737280,0.0,-999.0,62,0.00,,,0.00,Wunderground v.1.15,2013-05-25 22:02:00,
2013-05-25 17:05:00,60.4,47.3,30.13,North,0,0.0,0.0,62,0.00,,,0.00,Wunderground v.1.15,2013-05-25 22:05:00,
2013-05-25 17:07:00,60.4,47.3,30.13,N/A,-737280,0.0,-999.0,62,0.00,,,0.00,Wunderground v.1.15,2013-05-25 22:07:00,
2013-05-25 17:12:00,60.0,47.4,30.13,N/A,-737280,0.0,-999.0,63,0.00,,,0.00,Wunderground v.1.15,2013-05-25 22:12:00,
2013-05-25 17:15:00,60.4,47.3,30.13,ENE,59,0.0,0.0,62,0.00,,,0.00,Wunderground v.1.15,2013-05-25 22:15:00,
2013-05-25 17:17:00,60.0,47.4,30.13,N/A,-737280,0.0,-999.0,63,0.00,,,0.00,Wunderground v.1.15,2013-05-25 22:17:00,
2013-05-25 17:20:00,60.2,47.1,30.13,North,0,0.0,0.0,62,0.00,,,0.00,Wunderground v.1.15,2013-05-25 22:20:00,
2013-05-25 17:22:00,60.0,47.4,30.13,N/A,-737280,0.0,-999.0,63,0.00,,,0.00,Wunderground v.1.15,2013-05-25 22:22:00,
2013-05-25 17:27:00,59.8,46.7,30.14,N/A,-737280,0.0,-999.0,62,0.00,,,0.00,Wunderground v.1.15,2013-05-25 22:27:00,
2013-05-25 17:30:00,59.9,46.8,30.13,North,0,0.0,0.0,62,0.00,,,0.00,Wunderground v.1.15,2013-05-25 22:30:00,
2013-05-25 17:32:00,59.8,46.7,30.14,N/A,-737280,0.0,-999.0,62,0.00,,,0.00,Wunderground v.1.15,2013-05-25 22:32:00,
2013-05-25 17:37:00,59.8,46.7,30.14,N/A,-737280,0.0,-999.0,62,0.00,,,0.00,Wunderground v.1.15,2013-05-25 22:37:00,
2013-05-25 17:40:00,59.9,46.8,30.13,North,0,0.0,0.0,62,0.00,,,0.00,Wunderground v.1.15,2013-05-25 22:40:00,
2013-05-25 17:42:00,59.5,46.0,30.13,N/A,-737280,0.0,-999.0,61,0.00,,,0.00,Wunderground v.1.15,2013-05-25 22:42:00,
2013-05-25 17:45:00,59.6,47.0,30.13,North,0,0.0,0.0,63,0.00,,,0.00,Wunderground v.1.15,2013-05-25 22:45:00,
2013-05-25 17:47:00,59.5,46.0,30.13,N/A,-737280,0.0,-999.0,61,0.00,,,0.00,Wunderground v.1.15,2013-05-25 22:47:00,
2013-05-25 17:52:00,59.5,46.0,30.13,N/A,-737280,0.0,-999.0,61,0.00,,,0.00,Wunderground v.1.15,2013-05-25 22:52:00,
2013-05-25 17:55:00,59.5,46.5,30.14,North,0,0.0,0.0,62,0.00,,,0.00,Wunderground v.1.15,2013-05-25 22:55:00,
2013-05-25 17:57:00,59.3,46.7,30.13,N/A,-737280,0.0,-999.0,63,0.00,,,0.00,Wunderground v.1.15,2013-05-25 22:57:00,
2013-05-25 18:02:00,59.3,46.7,30.13,N/A,-737280,0.0,-999.0,63,0.00,,,0.00,Wunderground v.1.15,2013-05-25 23:02:00,
2013-05-25 18:05:00,59.3,46.3,30.13,North,0,0.0,0.0,62,0.00,,,0.00,Wunderground v.1.15,2013-05-25 23:05:00,
2013-05-25 18:07:00,59.3,46.7,30.13,N/A,-737280,0.0,-999.0,63,0.00,,,0.00,Wunderground v.1.15,2013-05-25 23:07:00,
2013-05-25 18:12:00,58.8,46.2,30.13,N/A,-737280,0.0,-999.0,63,0.00,,,0.00,Wunderground v.1.15,2013-05-25 23:12:00,
2013-05-25 18:15:00,59.2,46.2,30.13,North,0,0.0,0.0,62,0.00,,,0.00,Wunderground v.1.15,2013-05-25 23:15:00,
2013-05-25 18:17:00,58.8,46.2,30.13,N/A,-737280,0.0,-999.0,63,0.00,,,0.00,Wunderground v.1.15,2013-05-25 23:17:00,
2013-05-25 18:22:00,58.8,46.2,30.13,N/A,-737280,0.0,-999.0,63,0.00,,,0.00,Wunderground v.1.15,2013-05-25 23:22:00,
2013-05-25 18:25:00,58.7,45.7,30.13,North,1,0.0,0.0,62,0.00,,,0.00,Wunderground v.1.15,2013-05-25 23:25:00,
2013-05-25 18:27:00,58.5,46.4,30.12,N/A,-737280,0.0,-999.0,64,0.00,,,0.00,Wunderground v.1.15,2013-05-25 23:27:00,
2013-05-25 18:32:00,58.5,46.4,30.12,N/A,-737280,0.0,-999.0,64,0.00,,,0.00,Wunderground v.1.15,2013-05-25 23:32:00,
2013-05-25 18:35:00,58.6,46.0,30.13,North,0,0.0,0.0,63,0.00,,,0.00,Wunderground v.1.15,2013-05-25 23:35:00,
2013-05-25 18:37:00,58.5,46.4,30.12,N/A,-737280,0.0,-999.0,64,0.00,,,0.00,Wunderground v.1.15,2013-05-25 23:37:00,
2013-05-25 18:40:00,58.4,45.8,30.13,North,0,0.0,0.0,63,0.00,,,0.00,Wunderground v.1.15,2013-05-25 23:40:00,
2013-05-25 18:42:00,58.2,46.1,30.12,N/A,-737280,0.0,-999.0,64,0.00,,,0.00,Wunderground v.1.15,2013-05-25 23:42:00,
2013-05-25 18:47:00,58.2,46.1,30.12,N/A,-737280,0.0,-999.0,64,0.00,,,0.00,Wunderground v.1.15,2013-05-25 23:47:00,
2013-05-25 18:50:00,58.3,46.2,30.12,North,0,0.0,0.0,64,0.00,,,0.00,Wunderground v.1.15,2013-05-25 23:50:00,
2013-05-25 18:52:00,58.2,46.1,30.12,N/A,-737280,0.0,-999.0,64,0.00,,,0.00,Wunderground v.1.15,2013-05-25 23:52:00,
2013-05-25 18:55:00,58.3,46.2,30.12,North,0,0.0,0.0,64,0.00,,,0.00,Wunderground v.1.15,2013-05-25 23:55:00,
2013-05-25 18:57:00,57.9,45.8,30.13,N/A,-737280,0.0,-999.0,64,0.00,,,0.00,Wunderground v.1.15,2013-05-25 23:57:00,
2013-05-25 19:02:00,57.9,45.8,30.13,N/A,-737280,0.0,-999.0,64,0.00,,,0.00,Wunderground v.1.15,2013-05-26 00:02:00,
2013-05-25 19:05:00,58.0,45.9,30.12,NE,46,0.0,0.0,64,0.00,,,0.00,Wunderground v.1.15,2013-05-26 00:05:00,
2013-05-25 19:07:00,57.9,45.8,30.13,N/A,-737280,0.0,-999.0,64,0.00,,,0.00,Wunderground v.1.15,2013-05-26 00:07:00,
2013-05-25 19:12:00,57.6,46.3,30.13,N/A,-737280,0.0,-999.0,66,0.00,,,0.00,Wunderground v.1.15,2013-05-26 00:12:00,
2013-05-25 19:15:00,57.8,45.7,30.12,North,0,0.0,0.0,64,0.00,,,0.00,Wunderground v.1.15,2013-05-26 00:15:00,
2013-05-25 19:17:00,57.6,46.3,30.13,N/A,-737280,0.0,-999.0,66,0.00,,,0.00,Wunderground v.1.15,2013-05-26 00:17:00,
2013-05-25 19:22:00,57.6,46.3,30.13,N/A,-737280,0.0,-999.0,66,0.00,,,0.00,Wunderground v.1.15,2013-05-26 00:22:00,
2013-05-25 19:25:00,57.6,45.9,30.13,North,0,0.0,0.0,65,0.00,,,0.00,Wunderground v.1.15,2013-05-26 00:25:00,
2013-05-25 19:27:00,57.5,46.2,30.13,N/A,-737280,0.0,-999.0,66,0.00,,,0.00,Wunderground v.1.15,2013-05-26 00:27:00,
2013-05-25 19:32:00,57.5,46.2,30.13,N/A,-737280,0.0,-999.0,66,0.00,,,0.00,Wunderground v.1.15,2013-05-26 00:32:00,
2013-05-25 19:35:00,57.6,46.3,30.13,North,0,0.0,0.0,66,0.00,,,0.00,Wunderground v.1.15,2013-05-26 00:35:00,
2013-05-25 19:37:00,57.5,46.2,30.13,N/A,-737280,0.0,-999.0,66,0.00,,,0.00,Wunderground v.1.15,2013-05-26 00:37:00,
2013-05-25 19:42:00,57.3,46.4,30.13,N/A,-737280,0.0,-999.0,67,0.00,,,0.00,Wunderground v.1.15,2013-05-26 00:42:00,
2013-05-25 19:45:00,57.5,46.2,30.13,NNE,13,0.0,0.0,66,0.00,,,0.00,Wunderground v.1.15,2013-05-26 00:45:00,
2013-05-25 19:47:00,57.3,46.4,30.13,N/A,-737280,0.0,-999.0,67,0.00,,,0.00,Wunderground v.1.15,2013-05-26 00:47:00,
2013-05-25 19:52:00,57.3,46.4,30.13,N/A,-737280,0.0,-999.0,67,0.00,,,0.00,Wunderground v.1.15,2013-05-26 00:52:00,
2013-05-25 19:55:00,57.3,46.0,30.13,North,0,0.0,0.0,66,0.00,,,0.00,Wunderground v.1.15,2013-05-26 00:55:00,
2013-05-25 19:57:00,57.2,46.7,30.12,N/A,-737280,0.0,-999.0,68,0.00,,,0.00,Wunderground v.1.15,2013-05-26 00:57:00,
2013-05-25 20:00:00,57.3,46.4,30.13,North,0,0.0,0.0,67,0.00,,,0.00,Wunderground v.1.15,2013-05-26 01:00:00,
2013-05-25 20:02:00,57.2,46.7,30.12,N/A,-737280,0.0,-999.0,68,0.00,,,0.00,Wunderground v.1.15,2013-05-26 01:02:00,
2013-05-25 20:05:00,57.2,46.3,30.13,North,0,0.0,0.0,67,0.00,,,0.00,Wunderground v.1.15,2013-05-26 01:05:00,
2013-05-25 20:07:00,57.2,46.7,30.12,N/A,-737280,0.0,-999.0,68,0.00,,,0.00,Wunderground v.1.15,2013-05-26 01:07:00,
2013-05-25 20:12:00,57.1,46.6,30.12,N/A,-737280,0.0,-999.0,68,0.00,,,0.00,Wunderground v.1.15,2013-05-26 01:12:00,
2013-05-25 20:15:00,57.2,46.3,30.13,North,10,0.0,0.0,67,0.00,,,0.00,Wunderground v.1.15,2013-05-26 01:15:00,
2013-05-25 20:17:00,57.1,46.6,30.12,N/A,-737280,0.0,-999.0,68,0.00,,,0.00,Wunderground v.1.15,2013-05-26 01:17:00,
2013-05-25 20:20:00,57.2,46.7,30.12,North,0,0.0,0.0,68,0.00,,,0.00,Wunderground v.1.15,2013-05-26 01:20:00,
2013-05-25 20:22:00,57.1,46.6,30.12,N/A,-737280,0.0,-999.0,68,0.00,,,0.00,Wunderground v.1.15,2013-05-26 01:22:00,
2013-05-25 20:27:00,56.9,46.4,30.12,N/A,-737280,0.0,-999.0,68,0.00,,,0.00,Wunderground v.1.15,2013-05-26 01:27:00,
2013-05-25 20:30:00,57.0,46.5,30.12,NE,55,0.0,0.0,68,0.00,,,0.00,Wunderground v.1.15,2013-05-26 01:30:00,
2013-05-25 20:32:00,56.9,46.4,30.12,N/A,-737280,0.0,-999.0,68,0.00,,,0.00,Wunderground v.1.15,2013-05-26 01:32:00,
2013-05-25 20:37:00,56.9,46.4,30.12,N/A,-737280,0.0,-999.0,68,0.00,,,0.00,Wunderground v.1.15,2013-05-26 01:37:00,
2013-05-25 20:40:00,56.9,46.4,30.12,NNE,33,0.0,0.0,68,0.00,,,0.00,Wunderground v.1.15,2013-05-26 01:40:00,
2013-05-25 20:42:00,56.7,46.3,30.12,N/A,-737280,0.0,-999.0,68,0.00,,,0.00,Wunderground v.1.15,2013-05-26 01:42:00,
2013-05-25 20:47:00,56.7,46.3,30.12,N/A,-737280,0.0,-999.0,68,0.00,,,0.00,Wunderground v.1.15,2013-05-26 01:47:00,
2013-05-25 20:50:00,56.7,46.3,30.12,North,0,0.0,0.0,68,0.00,,,0.00,Wunderground v.1.15,2013-05-26 01:50:00,
2013-05-25 20:52:00,56.7,46.3,30.12,N/A,-737280,0.0,-999.0,68,0.00,,,0.00,Wunderground v.1.15,2013-05-26 01:52:00,
2013-05-25 20:55:00,56.7,46.3,30.12,North,0,0.0,0.0,68,0.00,,,0.00,Wunderground v.1.15,2013-05-26 01:55:00,
2013-05-25 20:57:00,56.6,46.2,30.13,N/A,-737280,0.0,-999.0,68,0.00,,,0.00,Wunderground v.1.15,2013-05-26 01:57:00,
2013-05-25 21:02:00,56.6,46.2,30.13,N/A,-737280,0.0,-999.0,68,0.00,,,0.00,Wunderground v.1.15,2013-05-26 02:02:00,
2013-05-25 21:05:00,56.6,46.2,30.12,North,0,0.0,0.0,68,0.00,,,0.00,Wunderground v.1.15,2013-05-26 02:05:00,
2013-05-25 21:07:00,56.6,46.2,30.13,N/A,-737280,0.0,-999.0,68,0.00,,,0.00,Wunderground v.1.15,2013-05-26 02:07:00,
2013-05-25 21:12:00,56.6,46.2,30.13,N/A,-737280,0.0,-999.0,68,0.00,,,0.00,Wunderground v.1.15,2013-05-26 02:12:00,
2013-05-25 21:15:00,56.6,46.2,30.12,NNE,13,0.0,0.0,68,0.00,,,0.00,Wunderground v.1.15,2013-05-26 02:15:00,
2013-05-25 21:17:00,56.6,46.2,30.13,N/A,-737280,0.0,-999.0,68,0.00,,,0.00,Wunderground v.1.15,2013-05-26 02:17:00,
2013-05-25 21:22:00,56.6,46.2,30.13,N/A,-737280,0.0,-999.0,68,0.00,,,0.00,Wunderground v.1.15,2013-05-26 02:22:00,
2013-05-25 21:25:00,56.6,46.2,30.13,North,0,0.0,0.0,68,0.00,,,0.00,Wunderground v.1.15,2013-05-26 02:25:00,
2013-05-25 21:27:00,56.6,46.2,30.13,N/A,-737280,0.0,-999.0,68,0.00,,,0.00,Wunderground v.1.15,2013-05-26 02:27:00,
2013-05-25 21:32:00,56.6,46.2,30.13,N/A,-737280,0.0,-999.0,68,0.00,,,0.00,Wunderground v.1.15,2013-05-26 02:32:00,
2013-05-25 21:35:00,56.6,46.2,30.13,North,0,0.0,0.0,68,0.00,,,0.00,Wunderground v.1.15,2013-05-26 02:35:00,
2013-05-25 21:37:00,56.6,46.2,30.13,N/A,-737280,0.0,-999.0,68,0.00,,,0.00,Wunderground v.1.15,2013-05-26 02:37:00,
2013-05-25 21:40:00,56.5,46.1,30.13,North,0,0.0,0.0,68,0.00,,,0.00,Wunderground v.1.15,2013-05-26 02:40:00,
2013-05-25 21:42:00,56.6,45.8,30.14,N/A,-737280,0.0,-999.0,67,0.00,,,0.00,Wunderground v.1.15,2013-05-26 02:42:00,
2013-05-25 21:47:00,56.6,45.8,30.14,N/A,-737280,0.0,-999.0,67,0.00,,,0.00,Wunderground v.1.15,2013-05-26 02:47:00,
2013-05-25 21:50:00,56.6,46.2,30.13,North,0,0.0,0.0,68,0.00,,,0.00,Wunderground v.1.15,2013-05-26 02:50:00,
2013-05-25 21:52:00,56.6,45.8,30.14,N/A,-737280,0.0,-999.0,67,0.00,,,0.00,Wunderground v.1.15,2013-05-26 02:52:00,
2013-05-25 21:57:00,56.6,45.0,30.14,N/A,-737280,0.0,-999.0,65,0.00,,,0.00,Wunderground v.1.15,2013-05-26 02:57:00,
2013-05-25 22:00:00,56.6,45.8,30.13,NNE,30,0.0,0.0,67,0.00,,,0.00,Wunderground v.1.15,2013-05-26 03:00:00,
2013-05-25 22:02:00,56.6,45.0,30.14,N/A,-737280,0.0,-999.0,65,0.00,,,0.00,Wunderground v.1.15,2013-05-26 03:02:00,
2013-05-25 22:05:00,56.6,45.8,30.14,North,0,0.0,0.0,67,0.00,,,0.00,Wunderground v.1.15,2013-05-26 03:05:00,
2013-05-25 22:07:00,56.6,45.0,30.14,N/A,-737280,0.0,-999.0,65,0.00,,,0.00,Wunderground v.1.15,2013-05-26 03:07:00,
2013-05-25 22:12:00,56.8,44.7,30.13,N/A,-737280,0.0,-999.0,64,0.00,,,0.00,Wunderground v.1.15,2013-05-26 03:12:00,
2013-05-25 22:15:00,56.7,45.1,30.14,North,0,0.0,0.0,65,0.00,,,0.00,Wunderground v.1.15,2013-05-26 03:15:00,
2013-05-25 22:17:00,56.8,44.7,30.13,N/A,-737280,0.0,-999.0,64,0.00,,,0.00,Wunderground v.1.15,2013-05-26 03:17:00,
2013-05-25 22:20:00,56.7,45.1,30.14,North,0,0.0,0.0,65,0.00,,,0.00,Wunderground v.1.15,2013-05-26 03:20:00,
2013-05-25 22:22:00,56.8,44.7,30.13,N/A,-737280,0.0,-999.0,64,0.00,,,0.00,Wunderground v.1.15,2013-05-26 03:22:00,
2013-05-25 22:27:00,56.8,43.9,30.13,N/A,-737280,0.0,-999.0,62,0.00,,,0.00,Wunderground v.1.15,2013-05-26 03:27:00,
2013-05-25 22:30:00,56.9,44.8,30.14,North,0,0.0,0.0,64,0.00,,,0.00,Wunderground v.1.15,2013-05-26 03:30:00,
2013-05-25 22:32:00,56.8,43.9,30.13,N/A,-737280,0.0,-999.0,62,0.00,,,0.00,Wunderground v.1.15,2013-05-26 03:32:00,
2013-05-25 22:35:00,56.9,44.8,30.13,North,0,0.0,0.0,64,0.00,,,0.00,Wunderground v.1.15,2013-05-26 03:35:00,
2013-05-25 22:37:00,56.8,43.9,30.13,N/A,-737280,0.0,-999.0,62,0.00,,,0.00,Wunderground v.1.15,2013-05-26 03:37:00,
2013-05-25 22:42:00,56.7,43.4,30.14,N/A,-737280,0.0,-999.0,61,0.00,,,0.00,Wunderground v.1.15,2013-05-26 03:42:00,
2013-05-25 22:45:00,56.7,43.8,30.13,North,0,0.0,0.0,62,0.00,,,0.00,Wunderground v.1.15,2013-05-26 03:45:00,
2013-05-25 22:47:00,56.7,43.4,30.14,N/A,-737280,0.0,-999.0,61,0.00,,,0.00,Wunderground v.1.15,2013-05-26 03:47:00,
2013-05-25 22:52:00,56.7,43.4,30.14,N/A,-737280,0.0,-999.0,61,0.00,,,0.00,Wunderground v.1.15,2013-05-26 03:52:00,
2013-05-25 22:55:00,56.7,43.8,30.13,North,0,0.0,0.0,62,0.00,,,0.00,Wunderground v.1.15,2013-05-26 03:55:00,
2013-05-25 22:57:00,56.4,42.2,30.14,N/A,-737280,0.0,-999.0,59,0.00,,,0.00,Wunderground v.1.15,2013-05-26 03:57:00,
2013-05-25 23:02:00,56.4,42.2,30.14,N/A,-737280,0.0,-999.0,59,0.00,,,0.00,Wunderground v.1.15,2013-05-26 04:02:00,
2013-05-25 23:05:00,56.5,43.2,30.14,North,0,0.0,0.0,61,0.00,,,0.00,Wunderground v.1.15,2013-05-26 04:05:00,
2013-05-25 23:07:00,56.4,42.2,30.14,N/A,-737280,0.0,-999.0,59,0.00,,,0.00,Wunderground v.1.15,2013-05-26 04:07:00,
2013-05-25 23:10:00,56.5,42.8,30.14,North,0,0.0,0.0,60,0.00,,,0.00,Wunderground v.1.15,2013-05-26 04:10:00,
2013-05-25 23:12:00,56.3,42.1,30.13,N/A,-737280,0.0,-999.0,59,0.00,,,0.00,Wunderground v.1.15,2013-05-26 04:12:00,
2013-05-25 23:15:00,56.3,42.6,30.14,North,0,0.0,0.0,60,0.00,,,0.00,Wunderground v.1.15,2013-05-26 04:15:00,
2013-05-25 23:17:00,56.3,42.1,30.13,N/A,-737280,0.0,-999.0,59,0.00,,,0.00,Wunderground v.1.15,2013-05-26 04:17:00,
2013-05-25 23:20:00,56.3,42.1,30.14,North,8,0.0,0.0,59,0.00,,,0.00,Wunderground v.1.15,2013-05-26 04:20:00,
2013-05-25 23:22:00,56.3,42.1,30.13,N/A,-737280,0.0,-999.0,59,0.00,,,0.00,Wunderground v.1.15,2013-05-26 04:22:00,
2013-05-25 23:25:00,56.3,42.1,30.14,North,0,0.0,0.0,59,0.00,,,0.00,Wunderground v.1.15,2013-05-26 04:25:00,
2013-05-25 23:27:00,56.0,42.3,30.13,N/A,-737280,0.0,-999.0,60,0.00,,,0.00,Wunderground v.1.15,2013-05-26 04:27:00,
2013-05-25 23:30:00,56.2,42.1,30.14,North,0,0.0,0.0,59,0.00,,,0.00,Wunderground v.1.15,2013-05-26 04:30:00,
2013-05-25 23:32:00,56.0,42.3,30.13,N/A,-737280,0.0,-999.0,60,0.00,,,0.00,Wunderground v.1.15,2013-05-26 04:32:00,
2013-05-25 23:35:00,56.0,41.9,30.13,North,0,0.0,0.0,59,0.00,,,0.00,Wunderground v.1.15,2013-05-26 04:35:00,
2013-05-25 23:37:00,56.0,42.3,30.13,N/A,-737280,0.0,-999.0,60,0.00,,,0.00,Wunderground v.1.15,2013-05-26 04:37:00,
2013-05-25 23:42:00,55.8,42.5,30.12,N/A,-737280,0.0,-999.0,61,0.00,,,0.00,Wunderground v.1.15,2013-05-26 04:42:00,
2013-05-25 23:45:00,56.0,42.3,30.13,North,0,0.0,0.0,60,0.00,,,0.00,Wunderground v.1.15,2013-05-26 04:45:00,
2013-05-25 23:47:00,55.8,42.5,30.12,N/A,-737280,0.0,-999.0,61,0.00,,,0.00,Wunderground v.1.15,2013-05-26 04:47:00,
2013-05-25 23:52:00,55.8,42.5,30.12,N/A,-737280,0.0,-999.0,61,0.00,,,0.00,Wunderground v.1.15,2013-05-26 04:52:00,
2013-05-25 23:55:00,55.9,42.2,30.13,NE,39,0.0,0.0,60,0.00,,,0.00,Wunderground v.1.15,2013-05-26 04:55:00,
2013-05-25 23:57:00,55.6,42.4,30.12,N/A,-737280,0.0,-999.0,61,0.00,,,0.00,Wunderground v.1.15,2013-05-26 04:57:00,